NOAA 16 DEB, 41149

Orbit data source: Space-Track

NOAA 16 DEB, 41149 is space debris in SSO originally from a launch on Thu, 21 Sep 2000 UTC launched from the Air Force Western Test Range (AFWTR). Debris objects in space refer to the collection of defunct objects orbiting the Earth. Examples of debris include non-operational satellites, rocket bodies, and fragments generated from explosions, collisions, or faulty payload assembly.

Loading next visibility...
Identifier
41149, 2000-055CG
Orbit
SSO
Last TLE update
17 hours ago
Origin
Manufacturer
Unknown
Mission
Spacecraft
Bus & Motor
Unknown
Mass
Unknown
Launch date (UTC)
2000-09-21 (25 years ago)
Launch vehicle
Unknown
Launch site
Air Force Western Test Range (AFWTR)
Object type
Payload
Rocket body
Debris
Shape & HBR
Unknown
Radar Cross Section
Small (<0.1 m²)

Expand to show TLE details & history

TLE from 17 hours ago
0 NOAA 16 DEB
1 41149U 00055CG  25189.58911464  .00008259  00000-0  14646-2 0  9999
2 41149  98.9438  65.0485 0041304 282.7159  76.9427 14.66986631503098
Epoch: 2025-07-08T14:08Z
TLE epoch observation values (Epoch: 2025-07-08T14:08:19.504Z)
Latitude
-0.00007°
Longitude
-73.81469°
Altitude
667.21 km
Speed
7.527 km/s
True Right ascension
04h 20m 11s
True Declination
0° 00' 00"
Sunlit
Object was in daylight at epoch
Visualization orbit readout
Latitude
-12.67917°
Longitude
104.95055°
Altitude
674.934 km
Speed
7.519 km/s
Apparent Right ascension
13h 14m 27s
Apparent Declination
-46° 57' 00"
Sunlit
Object is in full shadow
Visualization observer readout
Local Sidereal Time
19:32:46
Azimuth
232.32° WSW
Elevation
-30.708°
Doppler factor
1
Orbital elements
Apogee altitude
696.915 km
Perigee altitude
638.709 km
Semi-major axis
7,045.949 km
Eccentricity
0.00413
Inclination
98.9438°
RAAN
65.0485°
Arg. of periapsis
282.7159°
True anomaly
Unknown
Mean anomaly
76.9427°
Eccentric anomaly
Unknown
Mean motion
3.66973 °/min
Orbital period
98.1 mins
BSTAR
0.0014646
Loading maneuver chart data...
Loading SW <> Apogee altitude chart data...
Loading historical data...
Loading historical data...
Loading historical data...
Loading historical data...
Loading historical data...
Loading historical data...
Loading historical data...

NOAA 16 DEB Visibility forecast

Observer location: undefined°, undefined°

Span
Click to sort rows by Start time (UTC) header in descending order
Start Az.
Max El. time (UTC)
Max El. Az.
Max El.
End time (UTC)
End Az.
7 mins2025-07-09 14:50:16.756Z119.132° SE2025-07-09 14:53:16.756Z71.415° E24.764°2025-07-09 14:57:16.756Z10.458° NNE
6 mins2025-07-09 16:28:16.756Z221.168° SW2025-07-09 16:30:16.756Z260.589° W25.829°2025-07-09 16:34:16.756Z322.316° NNW
8 mins2025-07-10 04:22:16.756Z26.152° NE2025-07-10 04:25:16.756Z74.247° E39.036°2025-07-10 04:30:16.756Z180.667° SSW
|